Torna al catalogo

STARLINK-33863

AttivoComunicazioniVLEO
NORAD 63864·PAYLOAD·🇺🇸 United States

Lanciato May 10, 2025 da Vandenberg Space Force Base

Loading…

Prossimi Passaggi (prossime 24 ore)

TLE

AggiornatoSource: CelesTrak SupGP

Epoca: Sep 15, 2026, 03:53 UTC

1 63864C 25094A   26258.16229167 -.00032839  00000+0 -11425-2 0  2583
2 63864  69.9986 115.2345 0003138 273.3700  29.6840 15.29592952    13

Traccia STARLINK-33863 in tempo reale con AllMySat

Download on the App Store